Location: La Chapelle
(48.3135°N, 1.3085°W)
Time: 11:07:51
(UTC+00:00)

Cosmos 1844 - Pass Details

Date: 03 March 2021
Orbit: 822 x 868 km, 70.9° (Epoch: 11 April)

Event Time Altitude Azimuth Distance (km) Brightness Sun altitude
Rises 18:32:38 0° 334° (NNW) 3,463 7.2 -7.4°
Reaches altitude 10° 18:35:16 10° 342° (NNW) 2,519 6.4 -7.9°
Maximum altitude 18:40:45 42° 52° (NE) 1,215 4.2 -8.8°
Drops below altitude 10° 18:46:09 10° 123° (ESE) 2,483 5.6 -9.7°
Enters shadow 18:47:08 - 127° (SE) 2,829 5.9 -9.9°
